AKDT,Max TemperatureF,Mean TemperatureF,Min TemperatureF,Max Dew PointF,MeanDew PointF,Min DewpointF,Max Humidity, Mean Humidity, Min Humidity, Max Sea Level PressureIn, Mean Sea Level PressureIn, Min Sea Level PressureIn, Max VisibilityMiles, Mean VisibilityMiles, Min VisibilityMiles, Max Wind SpeedMPH, Mean Wind SpeedMPH, Max Gust SpeedMPH,PrecipitationIn, CloudCover, Events, WindDirDegrees
2013-5-1,1,-12,-24,-4,-17,-28,86,77,72,30.40,30.26,30.14,10,6,2,22,14,,0.00,5,Snow,230
2013-5-2,6,0,-5,0,-4,-10,83,78,73,30.23,30.19,30.15,10,9,3,17,13,,0.00,6,Snow,236
2013-5-3,12,5,-2,7,0,-6,96,82,71,30.27,30.25,30.23,10,6,2,15,12,,0.00,7,Snow,243
2013-5-4,10,0,-9,4,-3,-12,92,84,73,30.26,30.20,30.16,10,4,0,12,4,,0.00,6,Fog-Snow,52
2013-5-5,5,-4,-14,0,-7,-19,100,85,79,30.21,30.18,30.13,10,9,0,10,6,,0.00,4,Fog,107
2013-5-6,24,6,-11,19,7,-16,88,83,78,30.13,30.12,30.09,10,10,6,14,9,,0.00,4,Snow,215
2013-5-7,23,13,3,19,11,0,85,81,77,30.14,30.13,30.13,10,10,10,17,14,,0.00,3,,222
2013-5-8,28,22,17,25,20,14,93,87,78,30.35,30.23,30.14,10,7,2,17,13,,0.00,8,Snow,258
2013-5-9,30,24,18,26,20,14,89,83,75,30.35,30.29,30.21,10,10,7,16,8,,0.00,5,,199
2013-5-10,32,21,10,28,18,9,100,85,81,30.21,30.12,30.03,10,10,10,17,12,,0.00,1,,229
2013-5-11,33,22,10,31,21,9,100,90,84,30.03,29.91,29.77,10,6,0,16,9,,0.00,6,Fog-Snow,231
2013-5-12,30,22,14,28,20,10,100,92,79,29.77,29.58,29.51,10,3,0,29,12,33,0.00,7,Fog-Snow,157
2013-5-13,19,14,8,13,10,4,91,83,71,29.54,29.45,29.37,10,5,0,39,23,46,0.00,5,Fog-Snow,220
2013-5-14,12,6,0,10,5,-4,92,82,71,29.72,29.65,29.46,10,3,0,39,30,46,0.08,7,Fog-Snow,249
2013-5-15,18,8,-2,13,4,-7,88,80,74,29.69,29.66,29.61,10,10,10,12,7,,0.00,3,,106
2013-5-16,36,22,8,30,19,4,88,81,75,29.59,29.48,29.40,10,10,10,14,11,,0.01,4,,107
2013-5-17,30,22,14,21,13,10,92,83,69,29.84,29.67,29.42,10,6,1,22,15,,0.00,7,Snow,281
2013-5-18,17,10,1,10,8,-4,92,83,74,30.21,29.95,29.83,10,5,0,21,10,,0.12,6,Fog-Snow,256
2013-5-19,27,8,-11,19,6,-15,86,77,69,30.38,30.32,30.22,10,10,10,15,9,,0.00,2,,181
2013-5-20,34,30,23,30,24,19,89,80,72,30.48,30.45,30.39,10,10,10,20,13,,0.00,5,,167
2013-5-21,37,29,21,31,26,16,85,81,75,30.39,30.28,30.20,10,10,10,12,7,,0.00,4,,168
2013-5-22,36,30,25,30,28,23,92,86,79,30.22,30.19,30.14,10,10,10,16,7,,0.00,3,,69
2013-5-23,28,27,26,27,26,24,100,95,88,30.14,30.12,30.11,10,2,0,17,13,,0.00,7,Fog-Snow,83
2013-5-24,37,28,21,33,27,19,100,93,89,30.21,30.16,30.13,10,7,0,8,4,,0.00,4,Fog,134
2013-5-25,32,29,26,30,28,25,100,94,92,30.19,30.10,30.00,10,4,0,12,7,,0.00,5,Fog,91
2013-5-26,39,30,24,33,28,24,100,93,86,30.00,29.94,29.87,10,7,0,20,8,,0.00,5,Fog,86
2013-5-27,34,32,30,32,31,29,100,92,85,30.12,30.09,30.00,10,6,0,16,12,,0.00,8,Fog-Snow,328
2013-5-28,33,32,30,31,31,30,100,95,89,30.09,30.02,29.95,10,5,2,22,15,23,0.00,8,,66
2013-5-29,36,33,30,31,30,27,96,89,75,30.07,29.99,29.95,10,6,1,18,9,,0.01,7,Snow,294
2013-5-30,34,32,30,31,28,26,96,86,73,30.19,30.14,30.07,10,7,1,9,5,,0.00,8,Snow,1
2013-5-31,35,34,32,32,30,28,100,90,75,30.28,30.23,30.19,10,6,0,15,6,,0.00,7,Fog-Snow,349